Tracking 20242 objects as of 24-Jan-2020
HD Live streaming from Space Station
objects crossing your sky now

COSMOS 2251 DEB

Track COSMOS 2251 DEB now!
10-day predictions


NORAD ID: 34634
Int'l Code: 1993-036XF
Perigee: 700.6 km
Apogee: 772.4 km
Inclination: 74.1 °
Period: 99.4 minutes
Semi major axis: 7107 km
RCS: 0.0116 m2 (small)
Launch date: June 16, 1993
Source: Commonwealth of Independent States (former USSR) (CIS)
Launch site: PLESETSK MISSILE AND SPACE COMPLEX (PKMTR)

Note: This is SATELLITE DEBRIS
aabbcc
Your satellite tracking list
Your tracking list is empty




NASA's NSSDC Master Catalog

Two Line Element Set (TLE):
1 34634U 93036XF  20024.00771486  .00000124  00000-0  39711-4 0  9994
2 34634  74.0542 113.3485 0050512  44.7569 128.5803 14.48852313576753
Source of the keplerian elements: AFSPC